Regional Weather Roundup
Issued by NWS

Current Version | Previous Version | Text Only | Print | Product List | Glossary On
Versions: 1 2 3 4 5 6 7 8 9 10 11 12 13 14 15 16 17 18 19 20 21 22 23 24 25 26 27 28 29 30 31 32 33 34 35 36 37 38 39 40 41 42 43 44 45 46 47 48 49 50
000
ASCA42 TJSJ 030210
RWRPR
PUERTO RICO/U.S. VIRGIN ISLANDS HOURLY WEATHER ROUNDUP
NATIONAL WEATHER SERVICE SAN JUAN PR
1000 PM AST WED SEP 02 2015

PRZ001-004-030300-
PUERTO RICO

CITY           SKY/WX    TMP DP  RH WIND       PRES   REMARKS
SAN JUAN LMM   PTCLDY    82  75  78 E3        30.00R
PONCE          PTCLDY    82  79  89 NE6       29.95  HX  93
AGUADILLA      PTCLDY    81  77  89 MISG      30.01R
CEIBA          CLEAR     81  79  94 CALM      30.02S
$$

PRZ006-007-030300-
U.S. VIRGIN ISLANDS

CITY           SKY/WX    TMP DP  RH WIND       PRES   REMARKS
CHARLOTTE AMA  CLEAR     82  75  78 NE3       29.99S
CHRISTIANSTED  CLEAR     81  75  83 NE3       30.01S
$$

HOURLY WEATHER ROUNDUP FOR THE NEWS MEDIA

CITY           SKY/WX    TMP DP  RH WIND       PRES   REMARKS
ORLANDO        PTCLDY    79  73  82 CALM      30.02R
NEW YORK       PTCLDY    77  72  84 S9        29.92R
NEWARK         PTCLDY    80  70  71 S3        29.89S
CHICAGO        MOCLDY    79  67  66 S8        29.96R
HARTFORD       CLEAR     72  63  73 SW9       29.89S
BOSTON         CLEAR     77  67  71 SW6       29.87S
DALLAS         CLEAR     88  64  44 SE13      29.95R
PHILADELPHIA   CLEAR     80  68  66 S8        29.91R
LOS ANGELES    PTCLDY    69  61  75 W10       29.89F
WASHINGTON DC  CLEAR     75  68  78 CALM      29.95S


USA.gov is the U.S. government's official web portal to all federal, state and local government web resources and services.